EB5EEV-5 Weather Reports


time (UTC)temp
F
wind
direction
speed
knots
gust
knots
rain 1hr
in
rain 24hr
in
rain mn
in
humidity
%
barometer
mb
20260504214821 73 0 0.0 1.7 0.00 0.00 0.94 7 1006.0
20260504213404 73 0 0.0 1.7 0.00 0.00 0.94 7 1006.0
20260504212207 73 0 0.0 1.7 0.00 0.00 0.94 7 1006.0
20260504210825 73 0 0.0 1.7 0.00 0.00 0.94 7 1006.0
20260504205517 73 0 0.0 1.7 0.00 0.00 0.94 7 1006.0
20260504204106 73 0 0.0 1.7 0.00 0.00 0.94 7 1006.0
20260504202745 73 0 0.0 1.7 0.00 0.00 0.94 7 1006.0
20260504201500 73 0 0.0 1.7 0.00 0.00 0.94 7 1006.0
20260504194750 73 0 0.0 1.7 0.00 0.00 0.94 7 1006.0
20260504193317 73 0 0.0 1.7 0.00 0.00 0.94 7 1006.0
20260504192117 73 0 0.0 1.7 0.00 0.00 0.94 7 1006.0
20260504190906 73 0 0.0 1.7 0.00 0.00 0.94 7 1006.0
20260504185602 73 0 0.0 1.7 0.00 0.00 0.94 7 1006.0
20260504184132 73 0 0.0 1.7 0.00 0.00 0.94 7 1006.0
20260504182648 73 0 0.0 1.7 0.00 0.00 0.94 7 1006.0
20260504181216 73 0 0.0 1.7 0.00 0.00 0.94 7 1006.0
20260504175932 73 0 0.0 1.7 0.00 0.00 0.94 7 1006.0
20260504174452 73 0 0.0 1.7 0.00 0.00 0.94 7 1006.0
20260504173215 73 0 0.0 1.7 0.00 0.00 0.94 7 1006.0
20260504171942 73 0 0.0 1.7 0.00 0.00 0.94 7 1006.0
20260504170622 73 0 0.0 1.7 0.00 0.00 0.94 7 1006.0
20260504150615 69 252 0.9 1.7 0.00 0.00 0.91 8 1006.8
20260504141044 67 326 1.7 3.5 0.00 0.00 0.91 8 1007.5
20260504130421 65 352 2.6 2.6 0.02 0.00 0.91 9 1008.2
20260504081001 67 289 1.7 2.6 0.00 0.00 0.00 8 1009.1
20260504070208 67 0 0.0 0.0 0.00 0.00 0.00 8 1009.0
20260504045521 62 139 0.9 0.9 0.00 0.00 0.00 8 1008.8
20260504044253 63 0 0.0 0.0 0.00 0.00 0.00 8 1008.8
20260504042906 63 0 0.0 0.0 0.00 0.00 0.00 8 1008.9
20260504041706 63 0 0.0 0.0 0.00 0.00 0.00 8 1008.9
20260504040431 63 0 0.0 0.9 0.00 0.00 0.00 8 1009.0
20260504035018 63 0 0.0 0.0 0.00 0.00 0.00 8 1009.1
20260504033641 63 0 0.0 0.9 0.00 0.00 0.00 8 1009.4
20260504032441 63 0 0.0 0.9 0.00 0.00 0.00 8 1009.4
20260504031232 63 0 0.0 0.9 0.00 0.00 0.00 8 1009.6
20260504025956 63 0 0.0 0.9 0.00 0.00 0.00 8 1009.7
20260504024756 63 0 0.0 0.9 0.00 0.00 0.00 8 1009.7
20260504023455 63 0 0.0 0.9 0.00 0.00 0.00 8 1009.7
20260504022131 63 0 0.0 0.0 0.00 0.00 0.00 8 1009.5
20260504020711 63 0 0.0 0.0 0.00 0.00 0.00 8 1009.7
20260504015333 63 0 0.0 0.0 0.00 0.00 0.00 8 1009.6
20260504014109 63 0 0.0 0.9 0.00 0.00 0.00 8 1009.6
20260504012626 63 0 0.0 0.0 0.00 0.00 0.00 8 1009.6
20260504011214 63 0 0.0 0.9 0.00 0.00 0.00 8 1009.6
20260504005831 63 0 0.0 0.9 0.00 0.00 0.00 8 1009.5
20260504004456 63 0 0.0 0.9 0.00 0.00 0.00 8 1009.6
20260504003026 63 0 0.0 0.0 0.00 0.00 0.00 8 1009.8
20260504001706 63 0 0.0 0.0 0.00 0.00 0.00 8 1009.8
20260504000441 63 0 0.0 0.0 0.00 0.00 0.00 8 1010.1
20260503235221 63 0 0.0 0.0 0.00 0.00 0.00 8 1010.2
20260503233756 63 0 0.0 0.9 0.00 0.00 0.00 8 1010.4
20260503232529 63 0 0.0 0.0 0.00 0.00 0.00 8 1010.3
20260503231054 63 0 0.0 0.9 0.00 0.00 0.00 8 1010.4
20260503225816 63 0 0.0 0.0 0.00 0.00 0.00 8 1010.3
20260503224540 63 335 1.7 1.7 0.00 0.00 0.00 8 1010.4
20260503223321 63 335 1.7 1.7 0.00 0.00 0.00 8 1010.4
20260503221826 64 339 0.9 1.7 0.00 0.00 0.00 8 1010.4
20260503220530 64 0 0.0 0.9 0.00 0.00 0.00 8 1010.4